DW8046 Earlston UK current weather conditions

sailwx.info

Wind from 270

Air temperature 15.0° C
Dewpoint -40.8° C

Last reported at 2019-Jun-16 10:04 UTC.
Time now 2019-Jun-16 10:43 UTC

Location: N 55°41' W 002°40'.
View on Google Maps.

See reports from other nearby stations

  
Tides and Currents Weather Stations Pressure Air Temp Water Temp Dewpoint Dewpoint Depression Visibility Wind Speed Wind Dir Waves Ship Positions
date/time (UTC)wind fromknots sea level pressurealtimeterstation pressurevisibilityair tempwater tempwave heightnotes
2019-Jun-16 10:04 270 15.0
2019-Jun-16 09:55 269 15.0
2019-Jun-16 09:44 113 14.4
2019-Jun-16 09:34 281 14.4
2019-Jun-16 09:24 274 13.3
2019-Jun-16 09:14 272 12.8
2019-Jun-16 09:04 274 12.8
2019-Jun-16 08:54 274 12.8
2019-Jun-16 08:43 280 12.2
2019-Jun-16 08:33 276 12.8
2019-Jun-16 08:23 276 13.3
2019-Jun-16 08:13 274 13.3
2019-Jun-16 08:03 163 12.8
2019-Jun-16 07:54 224 13.3
2019-Jun-16 07:44 282 12.8
2019-Jun-16 07:34 274 12.2
2019-Jun-16 07:25 266 11.7
2019-Jun-16 07:14 276 11.7
2019-Jun-16 07:04 129 11.1
2019-Jun-16 06:54 135 10.6
2019-Jun-16 06:44 150 10.0
2019-Jun-16 06:33 118 9.4
2019-Jun-16 06:23 121 8.9
2019-Jun-16 06:13 141 8.3
2019-Jun-16 06:04 177 7.8
2019-Jun-16 05:53 037 7.2
2019-Jun-16 05:43 120 7.2
2019-Jun-16 05:33 124 6.7
2019-Jun-16 05:22 124 6.7
2019-Jun-16 05:12 120 6.7
2019-Jun-16 05:01 125 7.2
2019-Jun-16 04:51 127 7.2
2019-Jun-16 04:41 208 7.2
2019-Jun-16 04:31 205 6.7
2019-Jun-16 04:21 228 7.2
2019-Jun-16 04:10 203 7.2
2019-Jun-16 04:00 105 7.2
2019-Jun-16 03:50 105 7.2
2019-Jun-16 03:40 105 7.8
2019-Jun-16 03:30 293 7.8
2019-Jun-16 03:19 105 7.2
2019-Jun-16 03:09 088 7.2
2019-Jun-16 02:59 278 7.2
2019-Jun-16 02:49 353 6.1
2019-Jun-16 02:39 350 6.1
2019-Jun-16 02:29 349 5.6
2019-Jun-16 02:19 337 6.1
2019-Jun-16 02:08 326 5.6
2019-Jun-16 01:59 326 5.6
2019-Jun-16 01:49 326 6.1
2019-Jun-16 01:38 326 5.6
2019-Jun-16 01:28 326 6.1
2019-Jun-16 01:18 326 6.1
2019-Jun-16 01:07 326 6.1
2019-Jun-16 00:57 008 6.1
2019-Jun-16 00:47 008 6.7
2019-Jun-16 00:37 008 6.7
2019-Jun-16 00:27 008 6.7
2019-Jun-16 00:16 039 6.7
2019-Jun-16 00:07 043 6.7
2019-Jun-15 23:56 040 6.7
2019-Jun-15 23:46 039 6.7
2019-Jun-15 23:36 040 6.7
2019-Jun-15 23:25 043 7.2
2019-Jun-15 23:15 005 7.2
2019-Jun-15 23:05 005 7.8
2019-Jun-15 22:55 035 8.3
2019-Jun-15 22:44 037 8.9
2019-Jun-15 22:34 278 8.9
2019-Jun-15 22:24 093 8.9
2019-Jun-15 22:15 113 8.9
2019-Jun-15 22:04 288 9.4
2019-Jun-15 21:54 288 10.0
2019-Jun-15 21:44 288 10.6
2019-Jun-15 21:34 287 11.1
2019-Jun-15 21:24 149 11.1
2019-Jun-15 21:14 149 11.7
2019-Jun-15 21:03 141 11.7
2019-Jun-15 20:54 090 12.2
2019-Jun-15 20:44 183 12.2
2019-Jun-15 20:33 264 12.2
2019-Jun-15 20:23 290 12.2
2019-Jun-15 20:12 290 12.2
2019-Jun-15 20:03 288 12.8
2019-Jun-15 19:52 284 12.8
2019-Jun-15 19:42 284 12.8
2019-Jun-15 19:32 284 13.3
2019-Jun-15 19:22 284 13.3
2019-Jun-15 19:13 285 13.3
2019-Jun-15 19:03 120 13.9
2019-Jun-15 18:53 120 13.9
2019-Jun-15 18:43 132 13.9
2019-Jun-15 18:33 231 14.4
2019-Jun-15 18:23 129 14.4
2019-Jun-15 18:12 193 13.9
2019-Jun-15 18:02 270 13.9
2019-Jun-15 17:52 135 13.3
2019-Jun-15 17:42 114 13.3
2019-Jun-15 17:31 304 13.3
2019-Jun-15 17:22 228 13.3
2019-Jun-15 17:12 276 13.9
2019-Jun-15 17:01 276 14.4
2019-Jun-15 16:51 283 14.4
2019-Jun-15 16:40 125 15.0
2019-Jun-15 16:30 276 15.0
2019-Jun-15 16:20 274 14.4
2019-Jun-15 16:10 280 14.4
2019-Jun-15 16:00 280 13.9
2019-Jun-15 15:50 274 13.9
2019-Jun-15 15:40 280 13.9
2019-Jun-15 15:29 277 13.3
2019-Jun-15 15:19 283 14.4
2019-Jun-15 15:09 103 16.1
2019-Jun-15 14:59 103 16.1
2019-Jun-15 14:49 099 16.7
2019-Jun-15 14:39 116 17.2
2019-Jun-15 14:29 096 17.8
2019-Jun-15 14:19 121 17.2
2019-Jun-15 14:09 118 16.7
2019-Jun-15 13:59 301 15.6
2019-Jun-15 13:49 124 15.0
2019-Jun-15 13:39 201 14.4
2019-Jun-15 13:29 115 14.4
2019-Jun-15 13:19 155 14.4
2019-Jun-15 13:09 148 15.0
2019-Jun-15 12:59 217 15.0
2019-Jun-15 12:49 240 15.6
2019-Jun-15 12:39 159 15.6
2019-Jun-15 12:29 120 15.6
2019-Jun-15 12:19 198 15.6
2019-Jun-15 12:09 210 15.6
2019-Jun-15 11:58 062 16.1
2019-Jun-15 11:49 126 16.7
2019-Jun-15 11:38 125 17.2
2019-Jun-15 11:28 117 17.8
2019-Jun-15 11:18 129 17.2
2019-Jun-15 11:08 214 17.2
2019-Jun-15 10:58 219 17.2
2019-Jun-15 10:47 157 15.0
2019-Jun-15 10:37 233 14.4
2019-Jun-15 10:26 005 13.9
2019-Jun-15 10:17 006 13.9
2019-Jun-15 10:06 006 14.4
2019-Jun-15 09:56 079 15.0
2019-Jun-15 09:46 083 15.0
2019-Jun-15 09:37 100 15.6
2019-Jun-15 09:27 089 15.6
2019-Jun-15 09:16 139 15.6
2019-Jun-15 09:06 141 15.6
2019-Jun-15 08:56 145 15.6
2019-Jun-15 08:46 138 15.6
2019-Jun-15 08:36 155 15.6
2019-Jun-15 08:26 152 15.6
2019-Jun-15 08:16 159 15.6
2019-Jun-15 08:05 158 15.6
2019-Jun-15 07:55 156 15.0
2019-Jun-15 07:45 177 15.0
2019-Jun-15 07:35 159 14.4
2019-Jun-15 07:25 135 13.9
2019-Jun-15 07:15 132 13.3
2019-Jun-15 07:04 138 12.8
2019-Jun-15 06:54 138 12.2
2019-Jun-15 06:44 134 11.7
2019-Jun-15 06:34 134 11.1
2019-Jun-15 06:23 127 10.6
2019-Jun-15 06:13 133 10.6
2019-Jun-15 06:03 120 10.0
2019-Jun-15 05:53 120 9.4
2019-Jun-15 05:43 118 8.9
2019-Jun-15 05:33 118 8.3
2019-Jun-15 05:23 118 7.8
2019-Jun-15 05:12 118 7.8
2019-Jun-15 05:02 118 7.2
2019-Jun-15 04:52 118 7.2
2019-Jun-15 04:42 117 6.7
2019-Jun-15 04:32 117 6.7
2019-Jun-15 04:22 117 6.7
2019-Jun-15 04:12 117 6.7
2019-Jun-15 04:02 117 7.2
2019-Jun-15 03:51 117 7.2
2019-Jun-15 03:41 117 7.2
2019-Jun-15 03:30 118 7.8
2019-Jun-15 03:20 118 7.8
2019-Jun-15 03:10 118 8.3
2019-Jun-15 03:00 118 8.3
2019-Jun-15 02:50 118 8.9
2019-Jun-15 02:40 118 8.9
2019-Jun-15 02:30 118 8.9
2019-Jun-15 02:21 118 8.9
2019-Jun-15 02:10 118 8.9
2019-Jun-15 02:01 118 8.9
2019-Jun-15 01:51 118 8.9
2019-Jun-15 01:41 118 8.9
2019-Jun-15 01:31 118 8.9
2019-Jun-15 01:21 118 8.9
2019-Jun-15 01:11 118 8.9
2019-Jun-15 01:01 119 8.9
2019-Jun-15 00:51 118 8.9
2019-Jun-15 00:41 118 8.9
2019-Jun-15 00:31 118 8.9
2019-Jun-15 00:21 118 9.4
2019-Jun-15 00:12 118 9.4
2019-Jun-15 00:01 117 9.4
2019-Jun-14 23:51 117 10.0
2019-Jun-14 23:41 117 10.0
2019-Jun-14 23:31 114 10.0
2019-Jun-14 23:20 107 10.0
2019-Jun-14 23:10 110 10.0
2019-Jun-14 23:00 101 10.0
2019-Jun-14 22:50 100 10.6
2019-Jun-14 22:40 094 10.0
2019-Jun-14 22:29 095 10.0
2019-Jun-14 22:20 131 10.0
2019-Jun-14 22:10 131 10.0
2019-Jun-14 21:59 131 10.0
2019-Jun-14 21:50 131 10.0
2019-Jun-14 21:39 131 10.0
2019-Jun-14 21:29 131 10.0
2019-Jun-14 21:19 131 10.0
2019-Jun-14 21:09 131 10.6
2019-Jun-14 20:58 131 10.6
2019-Jun-14 20:48 131 11.1
2019-Jun-14 20:38 131 11.7
2019-Jun-14 20:28 134 12.2
2019-Jun-14 20:18 134 12.8
2019-Jun-14 20:08 134 13.3
2019-Jun-14 19:58 134 13.9
2019-Jun-14 19:47 136 13.9
2019-Jun-14 19:38 132 13.9
2019-Jun-14 19:28 144 13.9
2019-Jun-14 19:18 271 13.9
2019-Jun-14 19:08 149 13.9
2019-Jun-14 18:58 301 14.4
2019-Jun-14 18:48 169 14.4
2019-Jun-14 18:38 280 14.4
2019-Jun-14 18:28 295 15.0
2019-Jun-14 18:17 278 14.4
2019-Jun-14 18:07 181 13.9
2019-Jun-14 17:57 280 13.9
2019-Jun-14 17:47 278 13.9
2019-Jun-14 17:37 280 13.9
2019-Jun-14 17:27 278 14.4
2019-Jun-14 17:17 125 14.4
2019-Jun-14 17:07 284 14.4
2019-Jun-14 16:57 264 15.0
2019-Jun-14 16:47 277 15.0
2019-Jun-14 16:37 269 15.0
2019-Jun-14 16:27 266 15.0
2019-Jun-14 16:17 262 15.0
2019-Jun-14 16:07 299 15.6
2019-Jun-14 15:57 276 15.6
2019-Jun-14 15:47 139 15.6
2019-Jun-14 15:37 115 15.6
2019-Jun-14 15:27 273 15.6
2019-Jun-14 15:16 270 15.0
2019-Jun-14 15:06 277 14.4
2019-Jun-14 14:55 287 14.4
2019-Jun-14 14:45 068 14.4
2019-Jun-14 14:36 136 14.4
2019-Jun-14 14:25 270 13.9
2019-Jun-14 14:15 286 13.9
2019-Jun-14 14:04 150 13.3
2019-Jun-14 13:54 168 13.3
2019-Jun-14 13:44 125 13.3
2019-Jun-14 13:34 290 12.8
2019-Jun-14 13:23 163 12.2
2019-Jun-14 13:13 221 11.7
2019-Jun-14 13:03 118 11.1
2019-Jun-14 12:53 147 10.6
2019-Jun-14 12:43 115 9.4
2019-Jun-14 12:33 278 8.9
2019-Jun-14 12:23 278 8.9
2019-Jun-14 12:12 278 8.9
2019-Jun-14 12:02 278 8.9
2019-Jun-14 11:52 281 8.9
2019-Jun-14 11:42 277 9.4
2019-Jun-14 11:32 278 10.0
2019-Jun-14 11:21 281 11.1
2019-Jun-14 11:12 080 13.3
2019-Jun-14 11:02 097 13.3
2019-Jun-14 10:51 213 12.8
2019-Jun-14 10:41 230 12.2
2019-Jun-14 10:31 114 11.7